Simultaneous Nadir Overpasses (SNOs) Predictions

Prediction of SNOs between GOES-14 and NPP Satellite Orbit:

Table of predicted SNOs for the next 14.0 days since TLE Epoch: 7/1/2022
Index Date Time (GOES-14) GOES-14 Lat,Lon NPP Lat,Lon Distance(km) Time Diff (sec)
1 07/04/2022 08:24:08 -0.19,-104.53 -0.08,-105.05 59.18 80
2 07/05/2022 08:08:04 -0.17,-104.52 -1.10,-100.52 456.63 80
3 07/06/2022 20:27:23 0.21,-104.81 -0.01,-105.85 118.22 80
4 07/07/2022 20:11:19 0.19,-104.80 0.96,-101.31 397.57 80
5 07/09/2022 08:30:28 -0.23,-104.50 0.22,-106.58 237.53 80
6 07/10/2022 08:14:24 -0.22,-104.49 -0.74,-102.05 277.76 80
7 07/11/2022 20:33:44 0.26,-104.76 -0.30,-107.39 298.26 80
8 07/12/2022 20:17:40 0.24,-104.75 0.66,-102.85 217.05 80
9 07/14/2022 08:36:49 -0.28,-104.45 0.51,-108.12 418.05 80
10 07/15/2022 08:20:44 -0.27,-104.44 -0.45,-103.59 97.08 80
